This demonstration page uses our WeatherBlox Daily Observations layout. Learn more.

Left ArrowRight Arrow

41.86663, -103.66717

Hourly Observations for June 10, 2021

Temp ( °F °C ) Dew Point ( °F °C ) Humidity (%) Winds ( mph kmh ) Pressure ( in mb ) Visibility ( mi km ) Precip ( " mm )
12:53 am 00:53 Clear 70 21.1 62 16.7 76 76 E 7 11 29.84 1010 10 16 N/A
1:53 am 01:53 Clear 71 21.7 62 16.7 73 73 SSE 6 9 29.82 1010 10 16 N/A
2:53 am 02:53 Clear 68 20 61 16.1 78 78 ESE 9 15 29.81 1010 10 16 N/A
3:53 am 03:53 Clear 67 19.4 61 16.1 81 81 ESE 7 11 29.80 1009 10 16 N/A
4:53 am 04:53 Clear 66 18.9 61 16.1 84 84 E 8 13 29.78 1009 9 14 N/A
5:53 am 05:53 Sunny 67 19.4 61 16.1 81 81 E 9 15 29.79 1009 8 13 N/A
6:53 am 06:53 Sunny 70 21.1 63 17.2 79 79 ESE 10 17 29.79 1009 8 13 N/A
7:53 am 07:53 Sunny 74 23.3 63 17.2 69 69 ESE 14 22 29.78 1008 9 14 N/A
8:53 am 08:53 Sunny 78 25.6 64 17.8 62 62 ESE 12 19 29.77 1008 10 16 N/A
9:53 am 09:53 Sunny 84 28.9 65 18.3 53 53 S 12 19 29.74 1007 10 16 N/A
10:53 am 10:53 Sunny 86 30 62 16.7 45 45 SSE 15 24 29.72 1006 10 16 N/A
11:53 am 11:53 Sunny 90 32.2 62 16.7 39 39 SSE 14 22 29.70 1006 10 16 N/A
12:53 pm 12:53 Sunny 94 34.4 60 15.6 32 32 SSE 12 19 29.66 1004 10 16 N/A
1:53 pm 13:53 Sunny 97 36.1 57 13.9 26 26 SSE 12 19 29.62 1003 10 16 N/A
2:53 pm 14:53 Sunny 97 36.1 60 15.6 29 29 SSE 15 24 29.59 1002 10 16 N/A
3:53 pm 15:53 Sunny 97 36.1 56 13.3 25 25 S 18 30 29.57 1001 10 16 N/A
4:53 pm 16:53 Sunny 98 36.7 50 10 20 20 SSE 16 26 29.54 1000 10 16 N/A
5:53 pm 17:53 Sunny 97 36.1 55 12.8 24 24 SSE 16 26 29.51 999 10 16 N/A
6:53 pm 18:53 Sunny 94 34.4 58 14.4 30 30 SSE 16 26 29.50 999 10 16 N/A
7:53 pm 19:53 Sunny 90 32.2 60 15.6 37 37 SE 14 22 29.50 999 10 16 N/A
8:53 pm 20:53 Clear 86 30 57 13.9 37 37 SE 10 17 29.49 999 10 16 N/A
9:53 pm 21:53 Clear 86 30 54 12.2 33 33 S 13 20 29.50 999 10 16 N/A
10:53 pm 22:53 Clear 84 28.9 53 11.7 34 34 SSW 16 26 29.55 1001 10 16 N/A
11:53 pm 23:53 Clear 76 24.4 32 undefined 20 20 W 24 39 29.64 1004 10 16 N/A

Powered by AerisWeather